Airfield :
LOGIN :

Register | Disclaimer

   EN    FR    IT 

 










Legend :    VFR   Marginal VFR   IFR   Intensive IFR   Very Intensive IFR
Visi :
Ceiling :
>= 8 km
>= 3000ft
5 to 8 km
1000 to 3000 ft
1500m to 5 km
500 to 1000 ft
800 to 1500m
200 to 500 ft
< 800m
< 200 ft
Symbols :   Thunderstorms  Fog  Heavy snow  Heavy precipitations  Wind > 20 kt
SIGMETs :     Misc.  Thunderstorms  Icing  Turbulence  Mountain Waves  Volcanic Ashes






- Airport Elevation : 140 ft


ESTL - Ljungbyhed

CURRENT METAR :
  • 011420Z AUTO 25009KT 220V290 9999 FEW050/// SCT079/// 20/11 Q1003

EXPIRED METARs :
  • 011350Z AUTO 25011KT 9999 FEW040/// BKN071/// 19/10 Q1003
  • 011320Z AUTO 25010KT 220V290 9999 FEW040/// SCT051/// BKN079/// 19/10 Q1003
  • 011250Z AUTO 29013KT 9999 FEW037/// SCT045/// BKN080/// 18/11 Q1003
  • 011220Z AUTO 24011KT 9999 FEW046/// SCT082/// 19/10 Q1003
  • 011150Z AUTO 23011KT 200V260 9999 FEW034/// 20/10 Q1003

Expired Forecast.



MET'MAP, your aeronautical weather chart ! - Copyright ORBIFLY December 2007 - Disclaimer

ORBIFLY MET'MAP TEAM :

Programming & Development : Alexandra Zaïnal
Concept & original design : Baudouin d'Aumeries
Assistance for programming : Marc-Olivier Méhu
Technical & hardware support : Manuel Goepfert

Contact : metmap@orbifly.com




SOURCES & CREDITS :

   NOAA